K6PKL-2 Weather Reports


Display with metric or nautical units.
time (UTC)temp
F
wind
direction
speed
MPH
gust
MPH
rain 1hr
in
rain 24hr
in
rain mn
in
humidity
%
barometer
mb
20260502220016 74 327 3.0 6.0 0.00 0.00 0.00 58 1016.0
20260502215617 74 238 4.0 6.0 0.00 0.00 0.00 58 1015.9
20260502215216 74 252 4.0 6.0 0.00 0.00 0.00 58 1016.0
20260502214815 74 281 5.0 6.0 0.00 0.00 0.00 58 1016.1
20260502214415 74 267 6.0 6.0 0.00 0.00 0.00 58 1016.1
20260502214016 74 252 6.0 6.0 0.00 0.00 0.00 58 1016.1
20260502213215 74 22 4.0 10.0 0.00 0.00 0.00 59 1016.1
20260502212815 74 308 3.0 5.0 0.00 0.00 0.00 59 1016.2
20260502212415 74 348 6.0 7.0 0.00 0.00 0.00 59 1016.4
20260502212014 73 344 5.0 8.0 0.00 0.00 0.00 59 1016.2
20260502211615 73 263 3.0 8.0 0.00 0.00 0.00 59 1016.4
20260502210814 73 330 6.0 7.0 0.00 0.00 0.00 61 1016.5
20260502210014 72 29 4.0 7.0 0.00 0.00 0.00 60 1016.6
20260502204813 72 288 1.0 6.0 0.00 0.00 0.00 61 1016.8
20260502204413 72 312 5.0 11.0 0.00 0.00 0.00 62 1016.7
20260502204013 72 227 3.0 5.0 0.00 0.00 0.00 62 1016.8
20260502203613 72 294 1.0 6.0 0.00 0.00 0.00 62 1016.8
20260502203213 71 326 5.0 10.0 0.00 0.00 0.00 62 1016.8
20260502202813 71 236 3.0 4.0 0.00 0.00 0.00 62 1017.0
20260502202412 71 2 4.0 7.0 0.00 0.00 0.00 62 1017.0
20260502202012 71 234 4.0 9.0 0.00 0.00 0.00 62 1017.0
20260502201612 71 319 5.0 8.0 0.00 0.00 0.00 62 1017.0
20260502201212 71 235 4.0 7.0 0.00 0.00 0.00 62 1017.1
20260502200812 71 324 5.0 6.0 0.00 0.00 0.00 63 1017.1
20260502200413 70 257 2.0 6.0 0.00 0.00 0.00 62 1017.1
20260502200012 70 319 4.0 7.0 0.00 0.00 0.00 63 1017.0
20260502195211 70 0 3.0 7.0 0.00 0.00 0.00 64 1017.3
20260502194412 70 254 5.0 6.0 0.00 0.00 0.00 65 1017.2
20260502194011 70 280 2.0 7.0 0.00 0.00 0.00 65 1017.2
20260502193612 70 250 6.0 7.0 0.00 0.00 0.00 65 1017.2
20260502193211 70 321 7.0 7.0 0.00 0.00 0.00 66 1017.1
20260502192810 70 342 7.0 7.0 0.00 0.00 0.00 66 1017.3
20260502192410 70 335 6.0 8.0 0.00 0.00 0.00 67 1017.2
20260502192010 69 301 3.0 5.0 0.00 0.00 0.00 67 1017.2
20260502191610 69 312 2.0 6.0 0.00 0.00 0.00 68 1017.2
20260502191210 69 320 4.0 6.0 0.00 0.00 0.00 68 1017.1
20260502190811 69 0 6.0 9.0 0.00 0.00 0.00 69 1017.3
20260502190410 68 27 4.0 6.0 0.00 0.00 0.00 69 1017.2
20260502190009 68 13 2.0 7.0 0.00 0.00 0.00 70 1017.2
20260502185609 68 270 3.0 9.0 0.00 0.00 0.00 71 1017.4
20260502185209 68 342 6.0 8.0 0.00 0.00 0.00 71 1017.3
20260502184809 67 346 6.0 9.0 0.00 0.00 0.00 71 1017.3
20260502184409 67 326 4.0 9.0 0.00 0.00 0.00 72 1017.4
20260502183610 67 13 5.0 6.0 0.00 0.00 0.00 71 1017.4
20260502183208 67 285 5.0 5.0 0.00 0.00 0.00 71 1017.3
20260502182808 66 333 7.0 9.0 0.00 0.00 0.00 71 1017.3
20260502182409 66 24 5.0 7.0 0.00 0.00 0.00 71 1017.3
20260502180808 65 272 1.0 9.0 0.00 0.00 0.00 74 1017.5
20260502180407 65 310 2.0 7.0 0.00 0.00 0.00 74 1017.5
20260502164004 62 27 1.0 8.0 0.00 0.00 0.00 80 1017.4
20260502163605 62 350 1.0 5.0 0.00 0.00 0.00 81 1017.4
20260502163205 61 353 3.0 6.0 0.00 0.00 0.00 81 1017.2
20260502162804 61 303 4.0 5.0 0.00 0.00 0.00 81 1017.2
20260502162404 61 308 2.0 6.0 0.00 0.00 0.00 82 1017.3
20260502162004 61 7 4.0 7.0 0.00 0.00 0.00 82 1017.1
20260502161604 61 348 6.0 7.0 0.00 0.00 0.00 82 1017.0
20260502161204 61 267 1.0 5.0 0.00 0.00 0.00 82 1017.0
20260502160803 60 297 3.0 6.0 0.00 0.00 0.00 82 1017.0
20260502160403 60 17 5.0 7.0 0.00 0.00 0.00 82 1017.1
20260502152002 59 335 6.0 6.0 0.00 0.00 0.00 83 1017.0
20260502151601 59 337 4.0 5.0 0.00 0.00 0.00 83 1017.0
20260502151201 59 315 4.0 5.0 0.00 0.00 0.00 83 1017.0
20260502150802 58 294 3.0 5.0 0.00 0.00 0.00 83 1017.1
20260502150401 58 317 1.0 6.0 0.00 0.00 0.00 83 1017.0
20260502130354 58 36 1.0 2.0 0.00 0.00 0.00 82 1016.0
20260502123553 58 348 2.0 3.0 0.00 0.00 0.00 82 1015.7
20260502123153 58 9 1.0 3.0 0.00 0.00 0.00 81 1015.7
20260502122752 58 18 3.0 4.0 0.00 0.00 0.00 82 1015.6
20260502122352 58 357 4.0 4.0 0.00 0.00 0.00 81 1015.7
20260502121952 58 315 2.0 3.0 0.00 0.00 0.00 81 1015.7
20260502121552 58 0 1.0 4.0 0.00 0.00 0.00 81 1015.7
20260502121153 58 45 0.0 3.0 0.00 0.00 0.00 81 1015.7
20260502120752 58 0 1.0 3.0 0.00 0.00 0.00 81 1015.7
20260502120352 58 348 1.0 4.0 0.00 0.00 0.00 80 1015.7
20260502115551 58 315 0.0 3.0 0.00 0.00 0.00 80 1015.7
20260502115151 58 326 1.0 5.0 0.00 0.00 0.00 80 1015.7
20260502114752 58 0 3.0 5.0 0.00 0.00 0.00 80 1015.8
20260502114351 58 324 2.0 4.0 0.00 0.00 0.00 80 1015.9
20260502113551 58 234 3.0 4.0 0.00 0.00 0.00 79 1015.9
20260502113151 58 315 2.0 5.0 0.00 0.00 0.00 79 1015.9
20260502112750 59 180 1.0 6.0 0.00 0.00 0.00 79 1016.0
20260502112351 59 310 4.0 4.0 0.00 0.00 0.00 79 1016.1
20260502111951 59 319 0.0 4.0 0.00 0.00 0.00 78 1016.0
20260502111550 59 328 2.0 3.0 0.00 0.00 0.00 78 1016.0
20260502111150 59 342 1.0 3.0 0.00 0.00 0.00 78 1015.9
20260502110750 59 0 2.0 4.0 0.00 0.00 0.00 79 1016.0
20260502110350 59 0 2.0 4.0 0.00 0.00 0.00 78 1016.0
20260502105549 59 357 1.0 4.0 0.00 0.00 0.00 78 1016.0
20260502105150 59 330 3.0 5.0 0.00 0.00 0.00 78 1016.0
20260502104749 60 333 3.0 4.0 0.00 0.00 0.00 77 1015.9
20260502104349 60 353 2.0 4.0 0.00 0.00 0.00 77 1016.0
20260502103549 60 11 4.0 5.0 0.00 0.00 0.00 77 1016.0
20260502103148 60 9 3.0 4.0 0.00 0.00 0.00 76 1015.9
20260502102748 60 357 2.0 4.0 0.00 0.00 0.00 76 1015.9
20260502102348 60 0 2.0 4.0 0.00 0.00 0.00 76 1016.0
20260502101948 60 353 3.0 4.0 0.00 0.00 0.00 76 1016.0
20260502101548 60 330 3.0 5.0 0.00 0.00 0.00 76 1016.0
20260502101148 60 315 1.0 5.0 0.00 0.00 0.00 76 1015.9
20260502100748 60 324 1.0 4.0 0.00 0.00 0.00 75 1015.9
20260502100348 60 0 4.0 6.0 0.00 0.00 0.00 75 1016.0
20260502091146 62 47 1.0 2.0 0.00 0.00 0.00 72 1016.3
20260502090745 62 0 3.0 3.0 0.00 0.00 0.00 72 1016.3
20260502090346 62 0 2.0 4.0 0.00 0.00 0.00 71 1016.4
20260502071141 66 45 2.0 5.0 0.00 0.00 0.00 64 1016.5
20260502070741 66 58 3.0 4.0 0.00 0.00 0.00 63 1016.6
20260502070342 66 45 3.0 5.0 0.00 0.00 0.00 63 1016.6
20260502065941 66 45 1.0 5.0 0.00 0.00 0.00 63 1016.6
20260502065541 66 58 4.0 4.0 0.00 0.00 0.00 63 1016.7
20260502065141 67 45 2.0 7.0 0.00 0.00 0.00 63 1016.6
20260502064740 67 0 3.0 8.0 0.00 0.00 0.00 63 1016.5
20260502064340 67 355 4.0 8.0 0.00 0.00 0.00 63 1016.5
20260502063940 67 312 3.0 3.0 0.00 0.00 0.00 63 1016.4
20260502063540 67 0 2.0 5.0 0.00 0.00 0.00 62 1016.4
20260502062740 67 315 3.0 5.0 0.00 0.00 0.00 62 1016.4
20260502062340 68 326 4.0 5.0 0.00 0.00 0.00 62 1016.4
20260502061939 68 0 3.0 5.0 0.00 0.00 0.00 61 1016.3
20260502061539 68 355 1.0 4.0 0.00 0.00 0.00 61 1016.5
20260502061139 68 310 2.0 4.0 0.00 0.00 0.00 60 1016.4
20260502060339 68 45 1.0 3.0 0.00 0.00 0.00 60 1016.4
20260502055539 69 225 4.0 4.0 0.00 0.00 0.00 60 1016.5
20260502055139 69 295 1.0 3.0 0.00 0.00 0.00 59 1016.5
20260502054738 69 29 3.0 4.0 0.00 0.00 0.00 59 1016.5
20260502054338 69 324 2.0 4.0 0.00 0.00 0.00 59 1016.5
20260502053938 69 348 2.0 4.0 0.00 0.00 0.00 59 1016.5
20260502053538 69 319 2.0 4.0 0.00 0.00 0.00 59 1016.4
20260502053138 69 281 2.0 5.0 0.00 0.00 0.00 59 1016.5
20260502052738 70 321 3.0 4.0 0.00 0.00 0.00 58 1016.5
20260502052337 70 315 1.0 5.0 0.00 0.00 0.00 58 1016.5
20260502051938 70 0 3.0 5.0 0.00 0.00 0.00 58 1016.7
20260502051537 70 285 2.0 4.0 0.00 0.00 0.00 58 1016.6
20260502051137 70 252 0.0 3.0 0.00 0.00 0.00 57 1016.6
20260502050737 71 256 1.0 4.0 0.00 0.00 0.00 57 1016.6
20260502050337 71 319 1.0 6.0 0.00 0.00 0.00 56 1016.5
20260502045937 71 319 3.0 4.0 0.00 0.00 0.00 55 1016.5
20260502044336 72 235 3.0 5.0 0.00 0.00 0.00 53 1016.4
20260502043936 73 264 2.0 5.0 0.00 0.00 0.00 53 1016.4
20260502043536 73 299 3.0 4.0 0.00 0.00 0.00 52 1016.4
20260502042732 74 270 2.0 4.0 0.00 0.00 0.00 51 1016.5
20260502042333 74 236 2.0 7.0 0.00 0.00 0.00 50 1016.4
20260502041932 74 209 1.0 5.0 0.00 0.00 0.00 49 1016.4
20260502041532 75 333 5.0 6.0 0.00 0.00 0.00 49 1016.3
20260502041132 75 229 2.0 4.0 0.00 0.00 0.00 48 1016.2
20260502040732 76 315 0.0 4.0 0.00 0.00 0.00 48 1016.3
20260502040332 76 261 2.0 3.0 0.00 0.00 0.00 48 1016.2
20260502035931 76 315 1.0 4.0 0.00 0.00 0.00 47 1016.1
20260502035531 76 270 2.0 4.0 0.00 0.00 0.00 47 1016.1
20260502035131 77 330 2.0 5.0 0.00 0.00 0.00 47 1016.0
20260502034731 77 283 2.0 4.0 0.00 0.00 0.00 46 1016.0
20260502033931 78 272 4.0 4.0 0.00 0.00 0.00 46 1015.9
20260502033531 78 247 1.0 11.0 0.00 0.00 0.00 45 1015.9
20260502033131 79 272 4.0 9.0 0.00 0.00 0.00 45 1015.7
20260502032730 79 285 2.0 9.0 0.00 0.00 0.00 45 1015.8
20260502031130 81 231 3.0 4.0 0.00 0.00 0.00 48 1015.5
20260502025929 82 328 3.0 4.0 0.00 0.00 0.00 47 1015.3
20260502025129 83 0 0.0 5.0 0.00 0.00 0.00 46 1015.3
20260502024330 84 315 2.0 3.0 0.00 0.00 0.00 44 1015.2
20260502023929 85 256 1.0 4.0 0.00 0.00 0.00 44 1015.3
20260502023529 85 319 3.0 6.0 0.00 0.00 0.00 42 1015.2
20260502023128 86 306 3.0 4.0 0.00 0.00 0.00 41 1015.1
20260502022728 86 247 3.0 4.0 0.00 0.00 0.00 41 1015.2
20260502022328 87 333 5.0 5.0 0.00 0.00 0.00 40 1015.2
20260502021529 89 317 4.0 7.0 0.00 0.00 0.00 39 1015.2
20260502021128 90 310 4.0 5.0 0.00 0.00 0.00 40 1015.2
20260502020728 90 235 3.0 5.0 0.00 0.00 0.00 40 1015.1
20260502015927 90 346 3.0 6.0 0.00 0.00 0.00 41 1014.9
20260502015527 90 326 3.0 4.0 0.00 0.00 0.00 41 1015.0
20260502015127 89 299 4.0 6.0 0.00 0.00 0.00 41 1015.1
20260502014727 89 353 5.0 6.0 0.00 0.00 0.00 42 1015.0
20260502014327 89 333 3.0 5.0 0.00 0.00 0.00 42 1015.0
20260502013927 88 0 5.0 6.0 0.00 0.00 0.00 42 1015.1
20260502013126 88 0 4.0 4.0 0.00 0.00 0.00 43 1015.0
20260502012726 88 346 2.0 6.0 0.00 0.00 0.00 43 1015.1
20260502012326 88 11 5.0 9.0 0.00 0.00 0.00 43 1015.0
20260502011926 87 9 5.0 7.0 0.00 0.00 0.00 44 1015.0
20260502011526 87 18 4.0 8.0 0.00 0.00 0.00 44 1014.9
20260502011126 87 330 3.0 8.0 0.00 0.00 0.00 45 1014.9
20260502010725 86 330 4.0 8.0 0.00 0.00 0.00 45 1015.0
20260502010326 86 0 6.0 9.0 0.00 0.00 0.00 45 1015.0
20260502005925 86 346 1.0 7.0 0.00 0.00 0.00 46 1015.0
20260502005526 86 353 3.0 5.0 0.00 0.00 0.00 46 1015.0
20260502005125 86 315 1.0 3.0 0.00 0.00 0.00 46 1015.1
20260502004725 86 24 4.0 6.0 0.00 0.00 0.00 46 1015.1
20260502004325 86 11 4.0 5.0 0.00 0.00 0.00 47 1015.1
20260502003924 86 346 2.0 8.0 0.00 0.00 0.00 47 1015.2
20260502003524 85 342 4.0 5.0 0.00 0.00 0.00 47 1015.1
20260502003124 85 342 4.0 10.0 0.00 0.00 0.00 47 1015.2
20260502002324 85 335 4.0 6.0 0.00 0.00 0.00 48 1015.2
20260502001924 85 270 3.0 6.0 0.00 0.00 0.00 47 1015.2
20260502001525 85 330 6.0 7.0 0.00 0.00 0.00 47 1015.3
20260502001124 85 339 6.0 8.0 0.00 0.00 0.00 48 1015.3
20260502000324 85 310 3.0 6.0 0.00 0.00 0.00 48 1015.4
20260501235924 85 297 3.0 6.0 0.00 0.00 0.00 48 1015.4
20260501235524 85 302 3.0 7.0 0.00 0.00 0.00 48 1015.3
20260501235123 85 321 6.0 8.0 0.00 0.00 0.00 48 1015.4
20260501234723 85 6 7.0 8.0 0.00 0.00 0.00 48 1015.3
20260501234322 85 355 4.0 6.0 0.00 0.00 0.00 48 1015.4
20260501233922 85 0 2.0 10.0 0.00 0.00 0.00 48 1015.6
20260501233522 85 335 5.0 5.0 0.00 0.00 0.00 47 1015.6
20260501233122 85 321 4.0 6.0 0.00 0.00 0.00 48 1015.6
20260501232722 85 315 0.0 5.0 0.00 0.00 0.00 48 1015.7
20260501232323 85 333 2.0 8.0 0.00 0.00 0.00 48 1015.6
20260501231923 84 300 0.0 1.0 0.00 0.00 0.00 48 1015.7
20260501231523 84 260 2.0 4.0 0.00 0.00 0.00 48 1015.6
20260501231122 84 295 1.0 6.0 0.00 0.00 0.00 48 1015.8
20260501230722 84 333 6.0 7.0 0.00 0.00 0.00 48 1015.8
20260501230322 84 330 4.0 10.0 0.00 0.00 0.00 48 1015.7
20260501225922 84 9 6.0 9.0 0.00 0.00 0.00 48 1015.9
20260501225521 84 315 1.0 3.0 0.00 0.00 0.00 49 1015.8
20260501225121 84 275 3.0 6.0 0.00 0.00 0.00 48 1016.0
20260501224721 84 218 4.0 7.0 0.00 0.00 0.00 48 1016.1
20260501224320 84 357 4.0 7.0 0.00 0.00 0.00 49 1016.1
20260501223920 84 0 5.0 6.0 0.00 0.00 0.00 48 1016.2
20260501223520 84 348 2.0 5.0 0.00 0.00 0.00 49 1016.3
20260501223121 84 11 1.0 6.0 0.00 0.00 0.00 49 1016.2
20260501222721 84 228 3.0 6.0 0.00 0.00 0.00 48 1016.5
20260501222320 84 322 5.0 7.0 0.00 0.00 0.00 49 1016.5
20260501221520 83 252 2.0 5.0 0.00 0.00 0.00 49 1016.5
20260501220720 83 236 3.0 7.0 0.00 0.00 0.00 49 1016.6